Regional Weather Roundup
Issued by NWS

Home | Current Version | Previous Version | Text Only | Print | Product List | Glossary On
Versions: 1 2 3 4 5 6 7 8 9 10 11 12 13 14 15 16 17 18 19 20 21 22 23 24 25 26 27 28 29 30 31 32 33 34 35 36 37 38 39 40 41 42 43 44 45 46 47 48 49 50
000
ASUS45 KTFX 241710
RWRMT
MONTANA REGIONAL WEATHER ROUNDUP
NATIONAL WEATHER SERVICE GREAT FALLS MT
1100 AM MDT SUN MAY 24 2015

NOTE: "FAIR" INDICATES FEW OR NO CLOUDS BELOW 12000 FEET WITH NO
SIGNIFICANT WEATHER AND/OR OBSTRUCTIONS TO VISIBILITY.

MTZ001>007-043-241800-
WEST OF THE DIVIDE

CITY           SKY/WX    TMP DP  RH WIND       PRES   REMARKS
KALISPELL      SUNNY     69  39  33 NE10      30.02F
MISSOULA       SUNNY     63  41  44 CALM      30.03F
BUTTE          CLOUDY    51  35  54 N8        30.08S
MULLAN PASS    MOSUNNY   53  34  48 CALM      30.09S
EUREKA           N/A     66  36  32 W3        30.02F
HAMILTON         N/A     59  45  58 NE8       30.02F
LIBBY            N/A     64  39  39 W3        30.01F
RONAN            N/A     65  44  46 N2        30.08F
$$

MTZ008-052>055-241800-
SOUTHWEST MONTANA

CITY           SKY/WX    TMP DP  RH WIND       PRES   REMARKS
BOZEMAN        CLOUDY    52  44  74 SE3       30.05S
DILLON         PTSUNNY   55  40  56 NE16      30.03F
W YELLOWSTONE  CLOUDY    48  32  53 N7G16     30.02S
THREE FORKS      N/A     57  49  75 N1        30.04S
TWIN BRIDGES     N/A     56  38  50 N14       30.02S
$$

MTZ009-010-012-014-046-048-049-054-241800-
EAST SLOPES AND CENTRAL MONTANA

CITY           SKY/WX    TMP DP  RH WIND       PRES   REMARKS
CUT BANK       PTSUNNY   59  41  51 SE3       30.10F
GREAT FALLS    CLOUDY    57  46  66 NE8       30.08F
MALMSTROM AFB  PTSUNNY   55  49  81 E6        30.09F
HELENA         PTSUNNY   59  43  55 NE8       30.05S
CONRAD           N/A     61  50  67 NE1       30.11F
$$

MTZ011-013-016-021-045-047-050-051-241800-
NORTH CENTRAL MONTANA

CITY           SKY/WX    TMP DP  RH WIND       PRES   REMARKS
HAVRE          SUNNY     69  42  37 E7        30.05F
LEWISTOWN      CLOUDY    52  47  83 E6        30.09S
N BAR RANCH    LGT RAIN  48  46  93 N6        30.10F
CHINOOK          N/A     70  45  40 CALM      30.05F
FORT BENTON      N/A     61  48  63 CALM      30.09S
$$

MTZ017>020-022>027-061-062-241800-
NORTHEAST MONTANA

CITY           SKY/WX    TMP DP  RH WIND       PRES   REMARKS
GLASGOW        MOSUNNY   68  42  38 E3        30.03F
JORDAN           N/A     63  44  50 VRB7      30.02F
SIDNEY         MOSUNNY   68  46  45 NE7       30.02F
WOLF POINT     SUNNY     70  45  40 E12G17    30.02F
MALTA            N/A     63  46  53 NW1       30.02F
PLENTYWOOD       N/A     72  37  28 E12G21    30.02F
POPLAR           N/A     70  43  37 E13G18    30.02F
SCOBEY           N/A     73  38  28 NE12      30.02F
$$

MTZ028>42-056>058-241800-
SOUTHCENTRAL AND SOUTHEAST MONTANA

CITY           SKY/WX    TMP DP  RH WIND       PRES   REMARKS
BAKER          CLOUDY    56  50  80 E14       30.02F
BILLINGS       CLOUDY    51  49  92 NE12      30.03F
LIVINGSTON     CLOUDY    52  43  71 E12       30.05S
MILES CITY     CLOUDY    62  47  57 E15       30.01F
BIG TIMBER       N/A     48  46  93 E5        30.07S VSB 1
EKALAKA          N/A     51  49  93 NE10      29.98F
FORSYTH          N/A     61  48  63 E13       30.01S
LAUREL           N/A     51  44  77 N5        30.02F
ROUNDUP          N/A     51  47  86 N1        29.96F
$$

REGIONAL REPORTS...DAKOTAS

CITY           SKY/WX    TMP DP  RH WIND       PRES   REMARKS
WILLISTON      MOSUNNY   69  45  41 SE7       30.02F
MINOT          SUNNY     69  45  41 E8        30.02F
DICKINSON      CLOUDY    61  51  70 E9        30.00F
BEACH          PTSUNNY   61  54  77 E10       30.03F
CROSBY         FAIR      73  41  31 E10       30.03F
WATFORD CITY   FAIR      64  50  59 E9        30.01F
BISMARCK       CLOUDY    67  51  56 E12       30.00F
GRAND FORKS    MOSUNNY   72  47  40 SE9       30.02F
FARGO          CLOUDY    67  50  54 E10       30.00F
BUFFALO SD       N/A     54  52  93 NE16      29.92F
RAPID CITY     LGT RAIN  54  52  93 E13       29.92S
$$

REGIONAL REPORTS...WYOMING/IDAHO/WASHINGTON

CITY           SKY/WX    TMP DP  RH WIND       PRES   REMARKS
GILLETTE       LGT RAIN  52  49  89 NE17      29.92S
SHERIDAN       RAIN      50  48  93 NW8       29.99S FOG
BUFFALO WY     RAIN      48  47  96 N14G26    29.98R FOG
CODY           CLOUDY    48  43  81 N13       30.02S
YELLOWSTONE LA   N/A     46  30  53 E8        30.05F
IDAHO FALLS    PTSUNNY   57  46  66 VRB5      29.96F
SALMON         CLOUDY    57  45  62 NE3       30.00F
BOISE          SUNNY     64  49  57 VRB6      29.94F
SPOKANE        PTSUNNY   68  50  52 CALM      29.98F
$$

REGIONAL REPORTS...ALBERTA

CITY           SKY/WX    TMP DP  RH WIND       PRES   REMARKS
EDMONTON       SUNNY     75  36  23 S3        29.99F
CALGARY        CLOUDY    66  34  30 S14       30.06F
LETHBRIDGE     MOSUNNY   66  39  37 S8        30.07F
MEDICINE HAT   MOSUNNY   70  39  32 VRB5      30.07F
$$

REGIONAL REPORTS...SASKATCHEWAN

CITY           SKY/WX    TMP DP  RH WIND       PRES   REMARKS
SWIFT CURRENT  PTSUNNY   72  30  21 NE10G18   30.05F
REGINA         MOSUNNY   77  36  22 VRB7      30.03F
SASKATOON      MOSUNNY   72  46  40 VRB3      30.03F
$$


USA.gov is the U.S. government's official web portal to all federal, state and local government web resources and services.